Regional Weather Roundup
Issued by NWS

Home | Current Version | Previous Version | Graphics & Text | Print | Product List | Glossary Off
Versions: 1 2 3 4 5 6 7 8 9 10 11 12 13 14 15 16 17 18 19 20 21 22 23 24 25 26 27 28 29 30 31 32 33 34 35 36 37 38 39 40 41 42 43 44 45 46 47 48 49 50

000
ASUS43 KMPX 201101
RWRMN
WEATHER ROUNDUP FOR MINNESOTA
NATIONAL WEATHER SERVICE TWIN CITIES/CHANHASSEN MN
500 AM CST FRI JAN 20 2017


NOTE: "FAIR" INDICATES FEW OR NO CLOUDS BELOW 12,000 FEET WITH NO
SIGNIFICANT WEATHER AND/OR OBSTRUCTIONS TO VISIBILITY. N/A MEANS
CURRENT SKY AND/OR WEATHER CONDITIONS ARE NOT AVAILABLE.

MNZ060>063-068>070-201200-
   Twin Cities Metro

CITY           SKY/WX    TMP DP  RH WIND       PRES   REMARKS
TWIN CITIES    CLOUDY    35  34  96 SE6       29.63S FOG     WCI  30
ST PAUL        CLOUDY    35  35 100 SE3       29.64F FOG
CRYSTAL        CLOUDY    36  33  89 SE7       29.61F FOG
BLAINE         CLOUDY    37  37 100 SE3       29.62F FOG
LAKEVILLE      CLOUDY    34  34 100 CALM      29.62F FOG
EDEN PRAIRIE   CLOUDY    35  34  96 SE6       29.61F FOG     WCI  30
SOUTH ST PAUL  CLOUDY    36  35  99 CALM      29.63F FOG
LAKE ELMO      CLOUDY    36  36 100 SE5       29.64S FOG
$$
MNZ001>005-007-008-013>017-022>024-027-028-201200-
   Northwest Minnesota

CITY           SKY/WX    TMP DP  RH WIND       PRES   REMARKS
BEMIDJI        FOG       33  33 100 CALM      29.58F VSB 3/4
HALLOCK        FOG       36  34  93 S13       29.53F VSB 1
ROSEAU         CLOUDY    36  30  80 SE6       29.57S HAZE
WARROAD        CLOUDY    34  30  86 SE5       29.59S FOG     WCI  30
THIEF RVR FALL CLOUDY    34  33  96 SE10      29.56F FOG     WCI  26
CROOKSTON      CLOUDY    34  34 100 S10       29.55F FOG     WCI  26
FOSSTON        CLOUDY    34  34 100 SE8       29.57S WCI  27
DETROIT LAKES  FOG       34  34 100 SE7       29.56F VSB 1   WCI  28
MOORHEAD       CLOUDY    36  34  93 SE7       29.55F FOG
PARK RAPIDS    FOG       34  31  88 SE8       29.58S VSB 3/4 WCI  27
MAHNOMEN       CLOUDY    35  34  97 SE7       29.55F WCI  29
$$
MNZ006-009>011-018-025>026-201200-
   North Central Minnesota

CITY           SKY/WX    TMP DP  RH WIND       PRES   REMARKS
BAUDETTE       CLOUDY    35  34  96 S5        29.59F FOG     WCI  31
FLAG ISLAND    FOG       34  34 100 S8        29.59S VSB 1   WCI  27
INTL FALLS     CLOUDY    31  30  96 CALM      29.62S FOG
WASKISH        CLOUDY    36  36 100 CALM      29.60F FOG
BIG FORK       CLOUDY    34  34 100 CALM      29.62S FOG
LONGVILLE      FOG       34  32  93 CALM      29.60F VSB 1
GRAND RAPIDS   CLOUDY    31  31 100 E5        29.64S FOG     WCI  26
CRANE LAKE     MOCLDY    28  28 100 S3        29.66S FOG
ORR            CLOUDY    32  30  93 CALM      29.62S FOG
COOK           CLOUDY    32  30  93 CALM      29.64F
WALKER         FOG       32  32  99 E3        29.60S VSB 1/4
$$
MNZ012-019>021-037-201200-
   Northeast Minnesota

CITY           SKY/WX    TMP DP  RH WIND       PRES   REMARKS
DULUTH         CLOUDY    35  31  85 S7        29.62F WCI  29
ELY              N/A     25  25 100 CALM      29.64F FOG
HIBBING        CLOUDY    28  28 100 CALM      29.63F FOG
EVELETH        PTCLDY    22  21  95 CALM      29.64F FOG
DULUTH HARBOR  FOG       34  32  93 CALM      29.66S VSB 1
TWO HARBORS    PTCLDY    30  27  86 CALM      29.62F HAZE
SILVER BAY     FOG       27  25  93 CALM      29.64S VSB 1/2
GRAND MARAIS     N/A     28  26  92 CALM      29.68F
G MARAIS ARPRT CLOUDY    23  19  86 CALM      29.65F FOG
$$
MNZ029>031-032-039>041-046>048-054>057-064-201200-
   West Central Minnesota

CITY           SKY/WX    TMP DP  RH WIND       PRES   REMARKS
FERGUS FALLS   CLOUDY    36  36 100 SE8       29.59F FOG
WHEATON        CLOUDY    39  39 100 SE12      29.56F FOG
MORRIS         FOG       34  34 100 SE13      29.55S VSB 1/4 WCI  25
ALEXANDRIA     FOG       33  33 100 SE10      29.58F VSB 3/4 WCI  25
ELBOW LAKE     CLOUDY    33  33 100 SE10      29.56S FOG     WCI  25
WADENA         FOG       32  32 100 E7        29.58S VSB 3/4 WCI  26
GLENWOOD       FOG       34  34 100 SE9       29.58F VSB 3/4 WCI  26
APPLETON       CLOUDY    36  34  93 SE9       29.56S FOG
BENSON         CLOUDY    36  34  93 SE10        N/A
ORTONVILLE     FOG       34  30  86 CALM      29.55R VSB 1/2
MADISON        FOG       36  36 100 SE10      29.55F VSB 3/4
WILLMAR        FOG       34  34 100 SE9       29.60S VSB 1   WCI  26
$$
MNZ033>034-036-042>043-049>051-058-059-201200-
   Central Minnesota

CITY           SKY/WX    TMP DP  RH WIND       PRES   REMARKS
ST CLOUD       CLOUDY    34  34 100 SE7       29.61F FOG     WCI  28
SAUK CENTRE    RAIN      33  33 100 SE5       29.60S WCI  28
PAYNESVILLE    RAIN      33  33 100 SE8       29.60F WCI  26
AITKIN         CLOUDY    37  34  87 SE3       29.60F FOG
PINE RIVER     FOG       34  34 100 CALM      29.64F VSB 3/4
BRAINERD       FOG       34  34 100 SE6       29.61S VSB 1   WCI  29
STAPLES        CLOUDY    34  34 100 SE3       29.59F FOG
LONG PRAIRIE   MIX PCPN  32  32 100 E5        29.61R WCI  27
LITTLE FALLS   MIX PCPN  34  32  93 SE5       29.62S WCI  30
LITCHFIELD     DRIZZLE   36  36 100 SE5       29.61S
BUFFALO        RAIN      34  33  95 CALM      29.63S
MAPLE LAKE     LGT RAIN  35  35  99 MISG      29.62F
HUTCHINSON     DRIZZLE   34  35 100 SE5       29.62S WCI  30
$$
MNZ037-044-045-052-053-201200-
   East Central Minnesota

CITY           SKY/WX    TMP DP  RH WIND       PRES   REMARKS
PRINCETON      DRIZZLE   36  34  93 SE3       29.63S
MORA           CLOUDY    34  32  93 CALM      29.64F FOG
CAMBRIDGE      DRIZZLE   37  32  81 CALM      29.62R
RUSH CITY      CLOUDY    34  34 100 CALM      29.64S FOG
MOOSE LAKE     CLOUDY    36  32  87 CALM      29.61F FOG
HINCKLEY       DRIZZLE   36  36 100 E5        29.64S
CLOQUET        MOCLDY    34  30  86 E5        29.62F FOG     WCI  30
MCGREGOR       CLOUDY    36  32  87 E3        29.62F
$$
MNZ071>073-080-081-089-090-097-098-201200-
   Southwest Minnesota

CITY           SKY/WX    TMP DP  RH WIND       PRES   REMARKS
MONTEVIDEO     FOG       34  34 100 S9        29.59S VSB 3/4 WCI  26
GRANITE FALLS  FOG       35  34  99 E7        29.59S VSB 1   WCI  29
CANBY          FOG       34  34 100 CALM      29.55F VSB 1
MARSHALL       CLOUDY    34  34 100 SE12      29.56F FOG     WCI  25
REDWOOD FALLS  CLOUDY    34  32  92 SE10      29.59S FOG     WCI  26
OLIVIA         CLOUDY    34  32  93 SE8       29.59S FOG     WCI  27
PIPESTONE      CLOUDY    36  36 100 SE5       29.51F FOG
WINDOM         FOG       36  34  93 SE5       29.58F VSB 1
WORTHINGTON    FOG       34  34 100 E7          N/A  VSB 1/2 WCI  28
JACKSON        FOG       32  32 100 SE6       29.59S VSB 1/2 WCI  26
TRACY          CLOUDY    35  35 100 SE7       29.57F FOG     WCI  29
SLAYTON        FOG       33  33 100 SE7       29.56F VSB 1/4 WCI  27
$$
MNZ065>067-074>077-082>085-091>093-201200-
   South Central Minnesota

CITY           SKY/WX    TMP DP  RH WIND       PRES   REMARKS
MANKATO        MIX PCPN  34  33  96 SE8       29.62F FOG     WCI  27
NEW ULM        CLOUDY    34  34 100 SE6       29.60F FOG     WCI  29
ST JAMES       CLOUDY    34  34 100 SE5       29.61F FOG     WCI  30
FAIRMONT       CLOUDY    33  33 100 S6        29.61S FOG     WCI  28
GLENCOE        DRIZZLE   35  35 100 SE5       29.60F WCI  31
FARIBAULT      DRIZZLE   36  34  93 S3        29.62F
OWATONNA       CLOUDY    36  34  93 SE6       29.62S FOG
WASECA         CLOUDY    34  34 100 SE6       29.63F FOG     WCI  29
ALBERT LEA     FOG       34  34 100 S6        29.61F VSB 1   WCI  29
$$
MNZ078>079-086>088-094>096-201200-
   Southeast Minnesota

CITY           SKY/WX    TMP DP  RH WIND       PRES   REMARKS
ROCHESTER      CLOUDY    33  33 100 SE8       29.62F FOG     WCI  26
RED WING       LGT SNOW  36  34  93 SE6       29.64S
STANTON        CLOUDY    36  34  92 SE5       29.61F
DODGE CENTER   CLOUDY    34  34 100 CALM      29.61F FOG
WINONA         CLOUDY    34  34 100 CALM      29.67S FOG
AUSTIN         CLOUDY    34  32  93 CALM      29.61F FOG
PRESTON        CLOUDY    33  32  97 SE5       29.63F FOG     WCI  28
$$
ABBREVIATIONS USED IN REMARKS
   TC - TEMPERATURES IN CELSIUS
  WCI - WIND CHILL INDEX
   HX - HEAT INDEX
  VSB - VISIBILITY
$$




USA.gov is the U.S. government's official web portal to all federal, state and local government web resources and services.